This is the latest recevied weather packets stored in our database for station/object K0WOI. If no packets are shown the sender has not sent any weather packets the latest 10 day(s).
| Time | Temp. | Humidity | Pressure | Rain* | Wind** | Luminosity | Snow |
|---|---|---|---|---|---|---|---|
| 1777825363 | 21.11° C | 39% | 1008.7 hPa | 0 mm | - | 150 W/m² | - |
| 1777825059 | 20.56° C | 37% | 1008.6 hPa | 0 mm | - | 142 W/m² | - |
| 1777824755 | 20.56° C | 38% | 1008.6 hPa | 0 mm | - | 130 W/m² | - |
| 1777824453 | 20.56° C | 36% | 1008.5 hPa | 0 mm | - | 223 W/m² | - |
| 1777824148 | 20° C | 36% | 1008.7 hPa | 0 mm | - | 133 W/m² | - |
| 1777823845 | 20° C | 37% | 1009 hPa | 0 mm | - | 147 W/m² | - |
| 1777823543 | 20° C | 39% | 1008.8 hPa | 0 mm | - | 416 W/m² | - |
| 1777823239 | 20° C | 41% | 1008.9 hPa | 0 mm | - | 413 W/m² | - |
| 1777822937 | 19.44° C | 38% | 1008.7 hPa | 0 mm | - | 822 W/m² | - |
| 1777822635 | 19.44° C | 40% | 1008.7 hPa | 0 mm | - | 540 W/m² | - |
| 1777822333 | 20° C | 40% | 1008.6 hPa | 0 mm | - | 492 W/m² | - |
| 1777822030 | 19.44° C | 42% | 1008.5 hPa | 0 mm | - | 819 W/m² | - |
| 1777821728 | 19.44° C | 40% | 1008.6 hPa | 0 mm | - | 699 W/m² | - |
| 1777821425 | 18.89° C | 41% | 1008.7 hPa | 0 mm | - | 642 W/m² | - |
| 1777821122 | 18.33° C | 43% | 1008.8 hPa | 0 mm | - | 648 W/m² | - |
| 1777820818 | 18.33° C | 43% | 1008.9 hPa | 0 mm | - | 624 W/m² | - |
| 1777820515 | 18.33° C | 45% | 1008.8 hPa | 0 mm | - | 607 W/m² | - |
| 1777820211 | 17.78° C | 44% | 1008.9 hPa | 0 mm | - | 608 W/m² | - |
| 1777819909 | 17.78° C | 44% | 1008.9 hPa | 0 mm | - | 613 W/m² | - |
| 1777819606 | 17.78° C | 44% | 1008.6 hPa | 0 mm | - | 622 W/m² | - |
| 1777819304 | 17.22° C | 45% | 1008.8 hPa | 0 mm | - | 620 W/m² | - |
| 1777819000 | 17.22° C | 45% | 1008.8 hPa | 0 mm | - | 580 W/m² | - |
| 1777818698 | 16.67° C | 45% | 1008.6 hPa | 0 mm | - | 526 W/m² | - |
| 1777818394 | 16.67° C | 46% | 1008.7 hPa | 0 mm | - | 373 W/m² | - |
| 1777818091 | 16.11° C | 47% | 1008.9 hPa | 0 mm | - | 131 W/m² | - |
* Rain latest hour (hover to see other rain measurements)
** Current wind speed in m/s (hover to see current wind gust speed)